Flight Track Log - Related Links

Times and Time Zones

All times are in EDT time to prevent confusion due to time zone crossing. See the DAL1620 flight status page for this flight to view local times or setup timezone preferences in your user account.

Time Position Orientation Groundspeed Altitude Reporting Facility
EDT Latitude Longitude Course Direction KTS MPH feet Rate Location/Type
Sat 08:00:22 AM 41.2928 -95.8892 66° East 164 189 1,700  Level Minneapolis Center
Sat 08:01:23 AM 41.2619 -95.8347 127° Southeast 223 257 3,600 1,792 Climbing Minneapolis Center
Sat 08:01:39 AM 41.2597 -95.8125 98° East 231 266 4,000 2,684 Climbing Minneapolis Center
Sat 08:02:39 AM 41.3139 -95.7306 49° Northeast 300 345 7,000 3,273 Climbing Minneapolis Center
Sat 08:03:00 AM 41.5412 -95.5896 45° Northeast  Level FlightAware Approximate
Sat 08:03:40 AM 41.3814 -95.6603 38° Northeast 309 356 10,600  Level Minneapolis Center
Sat 08:04:00 AM 41.6244 -95.4923 37° Northeast  Level FlightAware Approximate
Sat 08:04:41 AM 41.4500 -95.5867 39° Northeast 313 360 13,700  Level Minneapolis Center
Sat 08:05:00 AM 41.6985 -95.3877 66° East  Level FlightAware Approximate
Sat 08:05:41 AM 41.5222 -95.5081 39° Northeast 329 379 16,600  Level Minneapolis Center
Sat 08:06:42 AM 41.5961 -95.4272 39° Northeast 341 392 19,300 2,459 Climbing Minneapolis Center
Sat 08:07:43 AM 41.6744 -95.3403 40° Northeast 361 415 21,600 2,164 Climbing Minneapolis Center
Sat 08:08:44 AM 41.7569 -95.2500 39° Northeast 378 435 23,700 1,686 Climbing Minneapolis Center
Sat 08:09:44 AM 41.8422 -95.1550 40° Northeast 391 450 25,000 942 Climbing Minneapolis Center
Sat 08:10:45 AM 41.9378 -95.0514 39° Northeast 432 497 25,600 885 Climbing Minneapolis Center
Sat 08:11:46 AM 42.0622 -94.9125 40° Northeast 479 551 26,800 689 Climbing Minneapolis Center
Sat 08:12:47 AM 42.1650 -94.7975 40° Northeast 482 555 27,000 98 Climbing Minneapolis Center
Sat 08:13:48 AM 42.2683 -94.6831 39° Northeast 482 555 27,000  Level Minneapolis Center
Sat 08:14:49 AM 42.3711 -94.5672 40° Northeast 482 555 27,000 298 Level Minneapolis Center
Sat 08:15:49 AM 42.4786 -94.4450 40° Northeast 482 555 27,600 992 Climbing Minneapolis Center
Sat 08:16:50 AM 42.5806 -94.3294 40° Northeast 482 555 29,000 689 Climbing Minneapolis Center
Sat 08:17:51 AM 42.6819 -94.2164 39° Northeast 477 549 29,000  Level Minneapolis Center
Sat 08:18:52 AM 42.7844 -94.1050 39° Northeast 477 549 29,000  Level Minneapolis Center
Sat 08:19:53 AM 42.8875 -93.9914 39° Northeast 477 549 29,000 49 Level Minneapolis Center
Sat 08:20:54 AM 43.0031 -93.9189 25° Northeast 462 532 29,100  Climbing Minneapolis Center
Sat 08:21:55 AM 43.1208 -93.9383 353° North 433 498 29,000 -49 Descending Minneapolis Center
Sat 08:22:56 AM 43.2383 -93.9717 348° North 433 498 29,000 -443 Level Minneapolis Center
Sat 08:23:57 AM 43.3544 -94.0028 349° North 431 496 28,100 -934 Descending Minneapolis Center
Sat 08:24:58 AM 43.4678 -94.0372 348° North 427 491 27,100 -1,033 Descending Minneapolis Center
Sat 08:25:59 AM 43.5978 -94.0714 349° North 426 490 26,000 -992 Descending Minneapolis Center
Sat 08:26:59 AM 43.7108 -94.1050 348° North 419 482 25,100 -942 Descending Minneapolis Center
Sat 08:28:00 AM 43.8214 -94.1364 348° North 411 473 24,100 -934 Descending Minneapolis Center
Sat 08:29:01 AM 43.9289 -94.1669 348° North 399 459 23,200 -934 Descending Minneapolis Center
Sat 08:30:02 AM 44.0353 -94.1981 348° North 394 453 22,200 -1,574 Descending Minneapolis Center
Sat 08:31:03 AM 44.1386 -94.2275 348° North 385 443 20,000 -2,390 Descending Minneapolis Center
Sat 08:32:05 AM 44.2406 -94.2578 348° North 377 434 17,300 -2,488 Descending Minneapolis Center
Sat 08:33:06 AM 44.3444 -94.2489 North 379 436 14,900 -2,410 Descending Minneapolis Center
Sat 08:34:07 AM 44.4456 -94.2217 11° North 376 433 12,400 -1,967 Descending Minneapolis Center
Sat 08:35:08 AM 44.5453 -94.1939 11° North 369 425 10,900 -738 Descending Minneapolis Center
Sat 08:36:09 AM 44.6494 -94.1653 11° North 321 369 10,900 -295 Level Minneapolis Center
Sat 08:37:10 AM 44.7103 -94.0811 45° Northeast 334 384 10,300 -1,171 Descending Minneapolis Center
Sat 08:38:12 AM 44.7489 -93.9675 64° Northeast 326 375 8,500 -1,610 Descending Minneapolis Center
Sat 08:39:13 AM 44.8081 -93.8675 50° Northeast 328 377 7,000 -738 Descending Minneapolis Center
Sat 08:40:14 AM 44.8647 -93.7753 49° Northeast 314 361 7,000 -49 Level Minneapolis Center
Sat 08:41:15 AM 44.9158 -93.6883 50° Northeast 283 326 6,900 -492 Descending Minneapolis Center
Sat 08:42:16 AM 44.9608 -93.6114 50° Northeast 256 295 6,000 -787 Descending Minneapolis Center
Sat 08:43:17 AM 44.9972 -93.5319 57° Northeast 240 276 5,300 -738 Descending Minneapolis Center
Sat 08:44:18 AM 44.9831 -93.4539 104° East 207 238 4,500 -885 Descending Minneapolis Center
Sat 08:45:19 AM 44.9547 -93.3894 122° Southeast 195 224 3,500 -885 Descending Minneapolis Center
Sat 08:46:20 AM 44.9339 -93.3406 121° Southeast 151 174 2,700 -780 Descending Minneapolis Center
Sat 08:47:22 AM 44.9156 -93.2983 122° Southeast 130 150 1,900 -732 Descending Minneapolis Center
Sat 08:48:23 AM 44.8975 -93.2561 121° Southeast 129 148 1,200 -689 Descending Minneapolis Center

Login

Don't have an account? Register now (free) for customized features, flight alerts, and more!